This is the latest recevied weather packets stored in our database for station/object KN4PLO. If no packets are shown the sender has not sent any weather packets the latest 1 day(s).
| Time | Temp. | Humidity | Pressure | Rain* | Wind** | Luminosity | Snow |
|---|---|---|---|---|---|---|---|
| 1778042243 | 19.44° C | 100% | - | 0 mm | 3.58 m/s, 202° | - | - |
| 1778041972 | 19.44° C | 100% | - | 0 mm | 3.58 m/s, 248° | - | - |
| 1778041672 | 19.44° C | 100% | - | 0 mm | 2.68 m/s, 215° | - | - |
| 1778041646 | 19.44° C | 100% | - | 0 mm | 4.47 m/s, 196° | - | - |
| 1778041372 | 19.44° C | 100% | - | 0 mm | 1.34 m/s, 219° | - | - |
| 1778041072 | 19.44° C | 100% | - | 0 mm | 3.13 m/s, 244° | - | - |
| 1778041045 | 19.44° C | 100% | - | 0 mm | 3.13 m/s, 271° | - | - |
| 1778040772 | 19.44° C | 100% | - | 0 mm | 1.79 m/s, 241° | - | - |
| 1778040472 | 19.44° C | 100% | - | 0 mm | 2.24 m/s, 230° | - | - |
| 1778040443 | 19.44° C | 100% | - | 0 mm | 4.02 m/s, 237° | - | - |
| 1778040172 | 19.44° C | 100% | - | 0 mm | 2.24 m/s, 190° | - | - |
| 1778039872 | 19.44° C | 100% | - | 0 mm | 2.68 m/s, 192° | - | - |
| 1778039843 | 19.44° C | 100% | - | 0 mm | 2.24 m/s, 207° | - | - |
| 1778039572 | 19.44° C | 100% | - | 0 mm | 2.68 m/s, 192° | - | - |
| 1778039272 | 20° C | 100% | - | 0 mm | 1.79 m/s, 175° | - | - |
| 1778039245 | 20° C | 100% | - | 0 mm | 4.02 m/s, 213° | - | - |
| 1778038972 | 20° C | 100% | - | 0 mm | 2.68 m/s, 218° | - | - |
| 1778038672 | 20° C | 100% | - | 0 mm | 4.02 m/s, 227° | - | - |
| 1778038643 | 20° C | 100% | - | 0 mm | 4.92 m/s, 219° | - | - |
| 1778038372 | 20° C | 100% | - | 0 mm | 2.24 m/s, 222° | - | - |
| 1778038072 | 20° C | 100% | - | 0 mm | 2.68 m/s, 200° | - | - |
| 1778038043 | 20° C | 100% | - | 0 mm | 1.79 m/s, 196° | - | - |
| 1778037772 | 20° C | 100% | - | 0 mm | 3.13 m/s, 190° | - | - |
| 1778037472 | 20° C | 100% | - | 0 mm | 1.79 m/s, 195° | - | - |
| 1778037172 | 20° C | 100% | - | 0 mm | 0.89 m/s, 213° | - | - |
* Rain latest hour (hover to see other rain measurements)
** Current wind speed in m/s (hover to see current wind gust speed)